QPF
0.02 0.03 0.03 0.02 0.02 0.01 0.01 0.01 0.00 0.00 0.00 0.00 0.01 0.00 0.00 0.00 0.00 0.00 0.00 0.00 0.00 0.00 0.00 0.00 0.00 0.00 0.00 0.00 0.00 0.00 0.00 0.00 0.00 0.00 0.00 0.00 0.00 0.00 0.00 0.00 0.00 0.00 0.00 0.00
0.02 0.02 0.01 0.00 0.01 0.01 0.01 0.01 0.01 0.00 0.00 0.00 0.00 0.00 0.00 0.00 0.00 0.00 0.00 0.00 0.00 0.00 0.00 0.00 0.00 0.00 0.00 0.00 0.00 0.00 0.00 0.00 0.00 0.00 0.00 0.00 0.00 0.00 0.00 0.00 0.00 0.00 0.00 0.00
0.02 0.01 0.00 0.00 0.01 0.01 0.02 0.01 0.00 0.00 0.00 0.00 0.00 0.00 0.00 0.00 0.00 0.00 0.00 0.00 0.00 0.00 0.00 0.00 0.00 0.00 0.00 0.00 0.00 0.00 0.00 0.00 0.00 0.00 0.00 0.00 0.00 0.00 0.00 0.00 0.00 0.00 0.00 0.00
0.03 0.01 0.00 0.01 0.01 0.01 0.01 0.01 0.01 0.01 0.01 0.01 0.01 0.01 0.00 0.00 0.00 0.00 0.00 0.00 0.00 0.00 0.00 0.00 0.00 0.00 0.00 0.00 0.00 0.00 0.00 0.00 0.00 0.00 0.00 0.00 0.00 0.00 0.00 0.00 0.00 0.00 0.00 0.00
0.04 0.01 0.01 0.01 0.01 0.01 0.01 0.01 0.01 0.02 0.03 0.02 0.01 0.02 0.00 0.00 0.00 0.00 0.00 0.00 0.00 0.00 0.00 0.00 0.00 0.00 0.00 0.00 0.00 0.00 0.00 0.00 0.00 0.00 0.00 0.00 0.00 0.00 0.00 0.00 0.00 0.00 0.00 0.00
0.03 0.01 0.01 0.01 0.01 0.01 0.01 0.02 0.03 0.03 0.05 0.06 0.02 0.01 0.00 0.00 0.00 0.00 0.00 0.00 0.00 0.00 0.00 0.00 0.00 0.00 0.00 0.00 0.00 0.00 0.00 0.00 0.00 0.00 0.00 0.00 0.00 0.00 0.00 0.00 0.00 0.00 0.00 0.00
0.03 0.02 0.01 0.01 0.01 0.02 0.02 0.03 0.06 0.07 0.08 0.05 0.01 0.01 0.00 0.00 0.00 0.00 0.00 0.00 0.00 0.00 0.00 0.00 0.00 0.00 0.00 0.00 0.00 0.00 0.00 0.00 0.00 0.00 0.00 0.00 0.00 0.00 0.00 0.00 0.00 0.00 0.00 0.00
0.03 0.02 0.01 0.01 0.01 0.02 0.02 0.04 0.06 0.06 0.04 0.01 0.00 0.00 0.00 0.00 0.00 0.00 0.00 0.00 0.00 0.00 0.00 0.00 0.00 0.00 0.00 0.00 0.00 0.00 0.00 0.00 0.00 0.00 0.00 0.00 0.00 0.00 0.00 0.00 0.00 0.00 0.00 0.00
0.04 0.02 0.01 0.00 0.00 0.01 0.02 0.03 0.03 0.04 0.03 0.02 0.01 0.00 0.00 0.00 0.00 0.00 0.00 0.00 0.00 0.00 0.00 0.00 0.00 0.00 0.00 0.00 0.00 0.00 0.00 0.00 0.00 0.00 0.00 0.00 0.00 0.00 0.00 0.00 0.00 0.00 0.00 0.00
0.04 0.02 0.01 0.01 0.01 0.01 0.02 0.02 0.03 0.07 0.07 0.03 0.01 0.00 0.00 0.00 0.00 0.00 0.00 0.00 0.00 0.00 0.00 0.00 0.00 0.00 0.00 0.00 0.00 0.00 0.00 0.00 0.00 0.00 0.00 0.00 0.00 0.00 0.00 0.00 0.00 0.00 0.00 0.00
0.03 0.04 0.02 0.02 0.03 0.02 0.02 0.03 0.04 0.05 0.04 0.03 0.02 0.01 0.01 0.00 0.00 0.00 0.00 0.00 0.00 0.00 0.00 0.00 0.00 0.00 0.00 0.00 0.00 0.00 0.00 0.00 0.00 0.00 0.00 0.00 0.00 0.00 0.00 0.00 0.00 0.00 0.00 0.00
0.04 0.05 0.04 0.03 0.02 0.02 0.02 0.02 0.02 0.03 0.03 0.01 0.01 0.02 0.01 0.01 0.00 0.00 0.00 0.00 0.00 0.00 0.00 0.00 0.00 0.00 0.00 0.00 0.00 0.00 0.00 0.00 0.00 0.00 0.00 0.00 0.00 0.00 0.00 0.00 0.00 0.00 0.00 0.00
0.08 0.09 0.07 0.06 0.05 0.04 0.05 0.03 0.02 0.02 0.02 0.01 0.01 0.01 0.00 0.01 0.00 0.00 0.00 0.00 0.00 0.00 0.00 0.00 0.00 0.00 0.00 0.00 0.00 0.00 0.00 0.00 0.00 0.00 0.00 0.00 0.00 0.00 0.00 0.00 0.00 0.00 0.00 0.00
0.09 0.11 0.08 0.07 0.05 0.04 0.04 0.04 0.03 0.02 0.03 0.02 0.01 0.00 0.00 0.00 0.00 0.00 0.00 0.00 0.00 0.00 0.00 0.00 0.00 0.00 0.00 0.00 0.00 0.00 0.00 0.00 0.00 0.00 0.00 0.00 0.00 0.00 0.00 0.00 0.00 0.00 0.00 0.00
0.09 0.11 0.07 0.04 0.02 0.02 0.02 0.03 0.03 0.02 0.01 0.01 0.00 0.00 0.00 0.00 0.00 0.00 0.00 0.00 0.00 0.00 0.00 0.00 0.00 0.00 0.00 0.00 0.00 0.00 0.00 0.00 0.00 0.00 0.00 0.00 0.00 0.00 0.00 0.00 0.00 0.00 0.00 0.00
0.10 0.09 0.07 0.05 0.03 0.02 0.02 0.02 0.02 0.02 0.01 0.01 0.00 0.00 0.00 0.00 0.00 0.00 0.00 0.00 0.00 0.00 0.00 0.00 0.00 0.00 0.00 0.00 0.00 0.00 0.00 0.00 0.00 0.00 0.00 0.00 0.00 0.00 0.00 0.00 0.00 0.00 0.00 0.00
0.12 0.11 0.09 0.06 0.04 0.05 0.05 0.02 0.01 0.01 0.01 0.01 0.00 0.00 0.00 0.00 0.00 0.00 0.00 0.00 0.00 0.00 0.00 0.00 0.00 0.00 0.00 0.00 0.00 0.00 0.00 0.00 0.00 0.00 0.00 0.00 0.00 0.00 0.00 0.00 0.00 0.00 0.00 0.00
0.07 0.08 0.10 0.09 0.07 0.09 0.04 0.01 0.01 0.01 0.01 0.00 0.00 0.00 0.00 0.00 0.00 0.00 0.00 0.00 0.00 0.00 0.00 0.00 0.00 0.00 0.00 0.00 0.00 0.00 0.00 0.00 0.00 0.00 0.00 0.00 0.00 0.00 0.00 0.00 0.00 0.00 0.00 0.00
0.04 0.06 0.09 0.10 0.09 0.06 0.02 0.01 0.01 0.01 0.02 0.01 0.00 0.00 0.00 0.00 0.00 0.00 0.00 0.00 0.00 0.00 0.00 0.00 0.00 0.00 0.00 0.00 0.00 0.00 0.00 0.00 0.00 0.00 0.00 0.00 0.00 0.00 0.00 0.00 0.00 0.00 0.00 0.00
0.04 0.05 0.09 0.11 0.11 0.07 0.03 0.01 0.01 0.02 0.03 0.02 0.00 0.01 0.01 0.00 0.00 0.00 0.00 0.00 0.00 0.00 0.00 0.00 0.00 0.00 0.00 0.00 0.00 0.00 0.00 0.00 0.00 0.00 0.00 0.00 0.00 0.00 0.00 0.00 0.00 0.00 0.00 0.00
0.05 0.08 0.12 0.11 0.09 0.05 0.03 0.01 0.01 0.04 0.04 0.02 0.01 0.00 0.00 0.00 0.00 0.00 0.00 0.00 0.00 0.00 0.00 0.00 0.00 0.00 0.00 0.00 0.00 0.00 0.00 0.00 0.00 0.00 0.00 0.00 0.00 0.00 0.00 0.00 0.00 0.00 0.00 0.00
0.06 0.09 0.09 0.09 0.09 0.05 0.01 0.02 0.03 0.04 0.03 0.01 0.01 0.00 0.00 0.00 0.00 0.00 0.00 0.00 0.00 0.00 0.00 0.00 0.00 0.00 0.00 0.00 0.00 0.00 0.00 0.00 0.00 0.00 0.00 0.00 0.00 0.00 0.00 0.00 0.00 0.00 0.00 0.00
0.05 0.07 0.08 0.07 0.05 0.01 0.01 0.01 0.02 0.03 0.03 0.01 0.01 0.01 0.00 0.00 0.00 0.00 0.00 0.00 0.00 0.00 0.00 0.00 0.00 0.00 0.00 0.00 0.00 0.00 0.00 0.00 0.00 0.00 0.00 0.00 0.00 0.00 0.00 0.00 0.00 0.00 0.00 0.00
0.02 0.04 0.05 0.05 0.02 0.01 0.01 0.01 0.01 0.01 0.02 0.02 0.01 0.01 0.00 0.00 0.00 0.00 0.00 0.00 0.00 0.00 0.00 0.00 0.00 0.00 0.00 0.00 0.00 0.00 0.00 0.00 0.00 0.00 0.00 0.00 0.00 0.00 0.00 0.00 0.00 0.00 0.00 0.00
0.02 0.02 0.03 0.03 0.02 0.02 0.02 0.01 0.01 0.01 0.01 0.01 0.01 0.00 0.00 0.01 0.00 0.00 0.00 0.00 0.00 0.00 0.00 0.00 0.00 0.00 0.00 0.00 0.00 0.00 0.00 0.00 0.00 0.00 0.00 0.00 0.00 0.00 0.00 0.00 0.00 0.01 0.01 0.00
0.02 0.02 0.03 0.03 0.02 0.02 0.02 0.02 0.01 0.01 0.01 0.01 0.01 0.01 0.00 0.00 0.01 0.01 0.01 0.01 0.01 0.01 0.01 0.00 0.00 0.00 0.00 0.00 0.00 0.00 0.00 0.00 0.00 0.00 0.00 0.00 0.00 0.01 0.01 0.01 0.01 0.01 0.01 0.00
MSLP
1013.36 1013.60 1013.76 1013.85 1013.90 1013.94 1013.99 1014.04 1014.08 1014.06 1013.95 1013.70 1013.31 1012.79 1012.17 1011.51 1010.88 1010.34 1009.93 1009.67 1009.55 1009.55 1009.64 1009.76 1009.91 1010.07 1010.25 1010.47 1010.75 1011.11 1011.55 1012.05 1012.58 1013.09 1013.55 1013.92 1014.19 1014.39 1014.52 1014.63 1014.75 1014.93 1015.18 1015.49
1013.43 1013.58 1013.67 1013.72 1013.77 1013.84 1013.95 1014.08 1014.20 1014.24 1014.16 1013.92 1013.50 1012.93 1012.24 1011.51 1010.82 1010.25 1009.84 1009.61 1009.54 1009.59 1009.72 1009.88 1010.03 1010.16 1010.28 1010.42 1010.62 1010.89 1011.27 1011.72 1012.23 1012.75 1013.22 1013.62 1013.91 1014.10 1014.21 1014.29 1014.37 1014.50 1014.70 1014.99
1013.34 1013.42 1013.46 1013.50 1013.58 1013.71 1013.91 1014.13 1014.33 1014.43 1014.38 1014.13 1013.66 1013.01 1012.24 1011.44 1010.70 1010.10 1009.69 1009.50 1009.49 1009.62 1009.81 1010.02 1010.18 1010.30 1010.37 1010.44 1010.55 1010.73 1011.03 1011.43 1011.91 1012.41 1012.89 1013.29 1013.59 1013.78 1013.87 1013.91 1013.95 1014.02 1014.18 1014.43
1013.14 1013.16 1013.17 1013.23 1013.36 1013.58 1013.87 1014.19 1014.47 1014.62 1014.57 1014.28 1013.75 1013.01 1012.14 1011.25 1010.44 1009.81 1009.42 1009.26 1009.33 1009.54 1009.82 1010.09 1010.29 1010.41 1010.45 1010.47 1010.50 1010.60 1010.82 1011.15 1011.58 1012.05 1012.52 1012.92 1013.22 1013.39 1013.47 1013.47 1013.46 1013.50 1013.61 1013.82
1012.86 1012.85 1012.86 1012.95 1013.15 1013.46 1013.85 1014.25 1014.59 1014.76 1014.70 1014.35 1013.73 1012.88 1011.91 1010.92 1010.04 1009.38 1008.99 1008.88 1009.01 1009.31 1009.68 1010.03 1010.29 1010.43 1010.47 1010.45 1010.42 1010.46 1010.60 1010.86 1011.23 1011.66 1012.10 1012.48 1012.77 1012.93 1012.98 1012.96 1012.92 1012.91 1012.98 1013.16
1012.56 1012.53 1012.56 1012.70 1012.96 1013.35 1013.82 1014.29 1014.66 1014.83 1014.73 1014.31 1013.59 1012.64 1011.55 1010.47 1009.53 1008.83 1008.45 1008.37 1008.56 1008.94 1009.39 1009.82 1010.14 1010.33 1010.38 1010.34 1010.28 1010.26 1010.33 1010.53 1010.84 1011.22 1011.62 1011.97 1012.24 1012.39 1012.43 1012.39 1012.32 1012.29 1012.33 1012.47
1012.25 1012.22 1012.28 1012.47 1012.80 1013.25 1013.78 1014.28 1014.66 1014.81 1014.65 1014.16 1013.35 1012.29 1011.11 1009.96 1008.96 1008.24 1007.84 1007.79 1008.03 1008.46 1008.98 1009.47 1009.85 1010.08 1010.15 1010.12 1010.03 1009.97 1009.99 1010.13 1010.38 1010.71 1011.07 1011.40 1011.65 1011.79 1011.82 1011.78 1011.71 1011.66 1011.68 1011.81
1011.96 1011.94 1012.03 1012.26 1012.63 1013.13 1013.68 1014.19 1014.55 1014.66 1014.44 1013.88 1013.00 1011.88 1010.64 1009.44 1008.41 1007.67 1007.28 1007.23 1007.48 1007.94 1008.50 1009.02 1009.44 1009.69 1009.79 1009.76 1009.66 1009.58 1009.57 1009.66 1009.87 1010.15 1010.48 1010.78 1011.02 1011.16 1011.20 1011.17 1011.10 1011.06 1011.08 1011.20
1011.66 1011.66 1011.79 1012.05 1012.46 1012.97 1013.52 1014.01 1014.32 1014.38 1014.11 1013.50 1012.58 1011.44 1010.19 1008.98 1007.96 1007.21 1006.82 1006.76 1007.00 1007.45 1008.00 1008.52 1008.94 1009.20 1009.30 1009.27 1009.18 1009.08 1009.05 1009.12 1009.29 1009.55 1009.85 1010.14 1010.38 1010.53 1010.59 1010.58 1010.54 1010.51 1010.54 1010.66
1011.35 1011.39 1011.55 1011.85 1012.26 1012.76 1013.27 1013.71 1013.97 1013.97 1013.66 1013.03 1012.11 1010.99 1009.78 1008.62 1007.63 1006.91 1006.51 1006.43 1006.63 1007.03 1007.52 1008.00 1008.38 1008.62 1008.71 1008.69 1008.59 1008.50 1008.46 1008.52 1008.68 1008.92 1009.21 1009.50 1009.75 1009.92 1010.01 1010.03 1010.03 1010.03 1010.08 1010.20
1011.03 1011.12 1011.31 1011.62 1012.03 1012.49 1012.94 1013.30 1013.48 1013.43 1013.09 1012.47 1011.59 1010.54 1009.41 1008.33 1007.41 1006.73 1006.34 1006.23 1006.37 1006.69 1007.09 1007.48 1007.79 1007.98 1008.05 1008.01 1007.93 1007.85 1007.82 1007.89 1008.05 1008.30 1008.59 1008.89 1009.15 1009.35 1009.47 1009.54 1009.57 1009.61 1009.68 1009.82
1010.70 1010.84 1011.07 1011.38 1011.76 1012.15 1012.51 1012.78 1012.88 1012.76 1012.41 1011.81 1011.00 1010.05 1009.04 1008.08 1007.25 1006.62 1006.24 1006.10 1006.16 1006.38 1006.66 1006.95 1007.17 1007.29 1007.33 1007.28 1007.21 1007.15 1007.16 1007.25 1007.43 1007.69 1007.99 1008.31 1008.59 1008.82 1008.98 1009.09 1009.16 1009.23 1009.33 1009.48
1010.37 1010.57 1010.82 1011.12 1011.44 1011.74 1011.99 1012.14 1012.14 1011.96 1011.59 1011.02 1010.29 1009.46 1008.59 1007.76 1007.04 1006.48 1006.11 1005.94 1005.93 1006.03 1006.20 1006.37 1006.50 1006.56 1006.56 1006.52 1006.47 1006.45 1006.49 1006.62 1006.83 1007.11 1007.44 1007.77 1008.08 1008.33 1008.53 1008.67 1008.78 1008.88 1009.01 1009.17
1010.05 1010.29 1010.55 1010.81 1011.05 1011.25 1011.37 1011.38 1011.27 1011.01 1010.61 1010.07 1009.43 1008.71 1007.98 1007.29 1006.68 1006.20 1005.86 1005.66 1005.58 1005.59 1005.65 1005.72 1005.76 1005.78 1005.77 1005.74 1005.72 1005.75 1005.85 1006.02 1006.27 1006.59 1006.93 1007.28 1007.60 1007.88 1008.11 1008.28 1008.43 1008.56 1008.71 1008.89
1009.74 1010.00 1010.24 1010.44 1010.57 1010.63 1010.61 1010.48 1010.24 1009.90 1009.47 1008.95 1008.38 1007.77 1007.17 1006.61 1006.11 1005.71 1005.40 1005.19 1005.06 1005.00 1004.98 1004.97 1004.97 1004.96 1004.95 1004.95 1004.99 1005.08 1005.24 1005.46 1005.76 1006.10 1006.46 1006.83 1007.17 1007.47 1007.72 1007.92 1008.10 1008.27 1008.45 1008.65
1009.41 1009.65 1009.84 1009.95 1009.97 1009.88 1009.70 1009.42 1009.06 1008.63 1008.16 1007.65 1007.14 1006.63 1006.14 1005.69 1005.30 1004.97 1004.70 1004.50 1004.35 1004.25 1004.18 1004.14 1004.11 1004.11 1004.13 1004.19 1004.29 1004.45 1004.67 1004.95 1005.29 1005.66 1006.04 1006.42 1006.77 1007.09 1007.37 1007.61 1007.82 1008.02 1008.23 1008.46
1009.01 1009.21 1009.32 1009.32 1009.20 1008.96 1008.63 1008.21 1007.74 1007.24 1006.73 1006.23 1005.76 1005.33 1004.94 1004.59 1004.29 1004.03 1003.81 1003.63 1003.49 1003.37 1003.30 1003.25 1003.24 1003.27 1003.34 1003.46 1003.63 1003.86 1004.15 1004.49 1004.86 1005.26 1005.66 1006.05 1006.43 1006.76 1007.07 1007.34 1007.60 1007.85 1008.10 1008.36
1008.51 1008.63 1008.63 1008.51 1008.26 1007.89 1007.43 1006.90 1006.34 1005.78 1005.24 1004.76 1004.34 1003.97 1003.66 1003.40 1003.17 1002.98 1002.81 1002.66 1002.54 1002.45 1002.39 1002.37 1002.39 1002.47 1002.61 1002.80 1003.05 1003.34 1003.69 1004.07 1004.48 1004.90 1005.33 1005.74 1006.13 1006.50 1006.84 1007.16 1007.47 1007.76 1008.05 1008.35
1007.87 1007.88 1007.78 1007.54 1007.18 1006.70 1006.14 1005.54 1004.92 1004.34 1003.80 1003.35 1002.96 1002.66 1002.41 1002.22 1002.06 1001.92 1001.80 1001.70 1001.61 1001.55 1001.53 1001.55 1001.63 1001.77 1001.96 1002.22 1002.53 1002.89 1003.29 1003.71 1004.15 1004.60 1005.04 1005.48 1005.90 1006.31 1006.69 1007.07 1007.42 1007.77 1008.11 1008.44
1007.06 1006.97 1006.76 1006.43 1005.98 1005.44 1004.83 1004.20 1003.58 1003.00 1002.50 1002.08 1001.74 1001.49 1001.30 1001.16 1001.06 1000.96 1000.89 1000.82 1000.77 1000.75 1000.78 1000.85 1000.98 1001.18 1001.44 1001.75 1002.11 1002.52 1002.95 1003.40 1003.87 1004.34 1004.81 1005.27 1005.73 1006.19 1006.63 1007.06 1007.47 1007.87 1008.25 1008.62
1006.11 1005.92 1005.63 1005.22 1004.73 1004.16 1003.55 1002.94 1002.35 1001.83 1001.37 1001.01 1000.73 1000.52 1000.38 1000.28 1000.21 1000.15 1000.11 1000.08 1000.07 1000.10 1000.17 1000.29 1000.48 1000.72 1001.03 1001.39 1001.79 1002.22 1002.68 1003.16 1003.64 1004.13 1004.63 1005.13 1005.63 1006.14 1006.63 1007.12 1007.59 1008.03 1008.46 1008.84
1005.02 1004.75 1004.40 1003.96 1003.46 1002.91 1002.35 1001.79 1001.28 1000.82 1000.44 1000.14 999.91 999.75 999.64 999.57 999.52 999.49 999.48 999.48 999.52 999.58 999.70 999.87 1000.10 1000.39 1000.74 1001.13 1001.55 1002.01 1002.49 1002.98 1003.48 1003.99 1004.52 1005.05 1005.60 1006.15 1006.69 1007.23 1007.75 1008.23 1008.68 1009.08
1003.81 1003.49 1003.10 1002.66 1002.19 1001.70 1001.21 1000.74 1000.32 999.95 999.64 999.40 999.23 999.10 999.01 998.96 998.94 998.93 998.94 998.99 999.06 999.18 999.35 999.57 999.85 1000.18 1000.56 1000.98 1001.42 1001.89 1002.38 1002.88 1003.39 1003.93 1004.48 1005.04 1005.62 1006.21 1006.80 1007.38 1007.92 1008.44 1008.90 1009.30
1002.50 1002.14 1001.74 1001.33 1000.91 1000.50 1000.10 999.74 999.41 999.13 998.91 998.72 998.58 998.48 998.42 998.39 998.38 998.39 998.44 998.53 998.66 998.84 999.07 999.36 999.69 1000.07 1000.48 1000.93 1001.39 1001.88 1002.37 1002.88 1003.41 1003.95 1004.52 1005.11 1005.71 1006.33 1006.94 1007.54 1008.10 1008.62 1009.08 1009.48
1001.08 1000.70 1000.32 999.95 999.60 999.27 998.98 998.71 998.48 998.29 998.12 997.99 997.89 997.82 997.77 997.76 997.78 997.83 997.94 998.09 998.29 998.55 998.86 999.22 999.62 1000.06 1000.52 1001.00 1001.49 1001.99 1002.49 1003.01 1003.54 1004.09 1004.67 1005.26 1005.88 1006.50 1007.11 1007.71 1008.27 1008.78 1009.23 1009.60
999.57 999.19 998.83 998.51 998.23 998.00 997.79 997.62 997.48 997.35 997.25 997.16 997.09 997.05 997.03 997.05 997.12 997.24 997.41 997.65 997.95 998.31 998.73 999.18 999.67 1000.17 1000.69 1001.21 1001.73 1002.24 1002.76 1003.28 1003.82 1004.37 1004.94 1005.53 1006.13 1006.74 1007.34 1007.91 1008.44 1008.93 1009.35 1009.70
Thickness
5639 5635 5639 5650 5656 5660 5664 5664 5667 5683 5696 5692 5690 5698 5712 5724 5729 5732 5736 5741 5745 5750 5755 5757 5757 5755 5751 5747 5742 5737 5731 5725 5719 5712 5706 5701 5696 5693 5689 5685 5680 5675 5669 5664
5623 5629 5647 5653 5654 5653 5653 5652 5659 5675 5688 5685 5683 5692 5710 5720 5726 5732 5735 5739 5744 5747 5750 5751 5752 5750 5747 5743 5739 5735 5730 5724 5718 5713 5707 5701 5695 5691 5686 5682 5678 5673 5668 5663
5617 5636 5644 5643 5643 5643 5645 5646 5653 5659 5670 5676 5673 5679 5702 5720 5728 5732 5737 5741 5743 5744 5744 5744 5745 5744 5742 5739 5736 5734 5729 5723 5717 5711 5703 5697 5690 5685 5681 5678 5674 5671 5666 5661
5616 5630 5633 5633 5636 5640 5636 5651 5651 5651 5646 5649 5662 5653 5690 5710 5716 5724 5729 5733 5737 5740 5742 5741 5740 5739 5737 5736 5734 5730 5726 5720 5714 5708 5701 5694 5688 5683 5681 5677 5672 5668 5664 5659
5609 5622 5624 5625 5635 5638 5639 5646 5644 5642 5637 5635 5649 5644 5675 5703 5705 5716 5725 5730 5734 5736 5737 5736 5736 5735 5734 5732 5729 5726 5722 5716 5711 5705 5699 5692 5687 5683 5678 5674 5670 5665 5661 5657
5606 5618 5622 5626 5632 5634 5635 5633 5632 5631 5624 5618 5643 5640 5660 5692 5707 5717 5724 5728 5731 5732 5732 5732 5732 5730 5727 5725 5722 5719 5716 5712 5708 5702 5696 5691 5685 5680 5675 5671 5667 5662 5658 5654
5592 5603 5614 5620 5616 5620 5620 5610 5601 5601 5601 5617 5650 5645 5664 5701 5715 5720 5721 5723 5726 5726 5725 5723 5723 5721 5720 5717 5715 5713 5710 5706 5703 5698 5693 5688 5683 5679 5674 5670 5666 5660 5655 5651
5578 5587 5604 5610 5611 5610 5610 5608 5598 5597 5607 5628 5642 5643 5673 5704 5712 5717 5719 5719 5720 5719 5719 5718 5718 5716 5714 5712 5710 5707 5705 5701 5698 5694 5689 5685 5681 5677 5673 5669 5665 5660 5655 5651
5577 5586 5604 5609 5612 5608 5601 5601 5612 5603 5607 5610 5631 5656 5680 5693 5697 5702 5706 5708 5708 5711 5713 5713 5712 5711 5709 5707 5705 5704 5701 5697 5694 5690 5686 5682 5678 5674 5670 5666 5662 5657 5653 5648
5576 5575 5591 5597 5599 5602 5603 5603 5595 5586 5585 5593 5621 5640 5654 5673 5682 5689 5693 5695 5699 5702 5705 5706 5706 5706 5705 5704 5701 5699 5697 5694 5691 5687 5682 5679 5675 5671 5667 5662 5658 5653 5649 5643
5568 5564 5574 5581 5583 5589 5589 5589 5590 5587 5591 5592 5602 5631 5670 5675 5681 5684 5687 5690 5692 5693 5696 5699 5700 5700 5699 5697 5695 5693 5691 5688 5685 5682 5678 5673 5670 5666 5662 5657 5653 5649 5644 5638
5558 5555 5557 5571 5587 5592 5589 5590 5587 5578 5582 5594 5598 5625 5670 5672 5676 5679 5681 5685 5687 5688 5689 5690 5691 5691 5690 5689 5688 5686 5685 5683 5681 5677 5673 5668 5664 5659 5655 5651 5647 5643 5638 5632
5546 5541 5541 5551 5562 5571 5576 5582 5584 5583 5584 5585 5588 5617 5659 5661 5663 5668 5670 5674 5677 5680 5681 5682 5682 5682 5682 5681 5681 5681 5679 5678 5675 5671 5666 5661 5657 5653 5649 5645 5640 5636 5631 5626
5541 5533 5536 5543 5555 5561 5562 5570 5574 5572 5570 5578 5592 5615 5638 5646 5650 5655 5659 5663 5666 5669 5670 5671 5672 5673 5674 5674 5674 5674 5673 5672 5669 5665 5660 5656 5652 5647 5642 5638 5633 5629 5624 5618
5527 5525 5535 5545 5557 5559 5559 5562 5567 5568 5574 5578 5598 5610 5628 5638 5642 5647 5651 5653 5656 5658 5661 5662 5663 5664 5665 5666 5667 5667 5666 5665 5662 5657 5653 5650 5646 5641 5635 5630 5626 5621 5616 5610
5515 5517 5525 5532 5546 5551 5553 5562 5565 5569 5576 5582 5593 5607 5629 5633 5636 5638 5642 5644 5646 5649 5652 5655 5656 5657 5658 5659 5660 5659 5658 5657 5654 5650 5646 5642 5638 5633 5628 5622 5617 5612 5607 5601
5504 5505 5509 5520 5537 5536 5539 5562 5567 5572 5580 5582 5586 5607 5617 5618 5624 5629 5633 5636 5639 5642 5645 5647 5648 5650 5652 5653 5654 5653 5652 5649 5646 5642 5638 5634 5630 5625 5620 5614 5609 5604 5598 5592
5501 5499 5497 5507 5516 5511 5552 5576 5575 5574 5583 5588 5594 5604 5608 5612 5619 5624 5628 5629 5632 5636 5638 5640 5641 5643 5645 5646 5646 5645 5643 5640 5637 5633 5630 5626 5621 5616 5611 5605 5600 5595 5589 5584
5503 5497 5492 5494 5502 5520 5553 5568 5570 5567 5574 5586 5589 5597 5602 5606 5606 5613 5623 5625 5627 5630 5633 5633 5635 5636 5637 5638 5637 5635 5632 5630 5627 5624 5621 5617 5613 5607 5601 5596 5591 5586 5580 5574
5501 5496 5489 5489 5494 5511 5550 5569 5573 5564 5562 5583 5586 5590 5593 5593 5585 5602 5614 5616 5620 5623 5625 5626 5626 5627 5627 5628 5627 5624 5621 5619 5617 5616 5613 5609 5604 5599 5593 5588 5583 5577 5571 5565
5488 5484 5483 5486 5490 5513 5549 5560 5560 5544 5558 5576 5579 5582 5582 5581 5585 5597 5602 5606 5610 5613 5615 5616 5617 5617 5618 5619 5617 5614 5612 5610 5610 5606 5603 5598 5594 5589 5584 5578 5573 5567 5560 5553
5486 5484 5484 5485 5486 5508 5543 5544 5542 5547 5560 5563 5566 5570 5573 5577 5583 5587 5590 5594 5597 5599 5603 5605 5605 5606 5607 5608 5607 5604 5602 5602 5599 5595 5592 5588 5583 5579 5573 5567 5561 5555 5548 5541
5491 5495 5496 5497 5507 5527 5535 5536 5542 5545 5546 5550 5553 5559 5563 5566 5571 5576 5579 5583 5586 5589 5591 5593 5593 5595 5596 5597 5596 5594 5593 5590 5587 5583 5579 5576 5572 5567 5562 5556 5550 5543 5537 5530
5492 5497 5495 5497 5512 5522 5527 5531 5534 5536 5537 5541 5544 5548 5551 5554 5559 5564 5568 5571 5575 5577 5579 5580 5582 5583 5584 5585 5585 5584 5581 5579 5575 5571 5567 5564 5559 5554 5549 5544 5539 5532 5525 5518
5488 5487 5488 5493 5506 5511 5518 5521 5523 5527 5530 5533 5536 5539 5541 5544 5548 5552 5556 5561 5564 5566 5568 5569 5570 5571 5571 5572 5572 5571 5569 5566 5562 5559 5555 5551 5547 5542 5537 5531 5526 5521 5516 5510
5482 5481 5481 5489 5500 5499 5506 5512 5515 5516 5519 5523 5525 5529 5533 5534 5538 5542 5546 5550 5552 5554 5555 5556 5557 5558 5559 5559 5559 5558 5556 5554 5550 5546 5542 5538 5534 5530 5524 5517 5509 5506 5502 5498